{"data":{"norad_id":53732,"epoch":"2026-05-25T01:44:25.293408Z","epoch_age_seconds":68650,"freshness":"FRESH","line1":"1 53732U 22107AJ  26145.07251497  .00000451  00000+0  46434-4 0  9999","line2":"2 53732  53.2155 271.3049 0001236  83.7538 276.3595 15.08838748206080","mean_motion":15.08838748,"eccentricity":0.0001236,"inclination_deg":53.2155,"raan_deg":271.3049,"arg_perigee_deg":83.7538,"mean_anomaly_deg":276.3595,"bstar":4.6434e-5,"rev_number":20608,"period_min":95.437633869673,"perigee_km":538.8921653408,"apogee_km":540.60226631896,"semimajor_km":6917.8842158299,"source":"CELESTRAK","updated_at":"2026-05-25T13:38:17.537681Z"}}